Longmont, CO

6:55 AM MST on December 11, 2016 (GMT -0700)
Lemoore (Abandoned) Willett A

Weather History for KLMO - January, 2014

Change the Weather History Date:

Monday, January 13, 2014

  Actual Average (KBJC) Record (KBJC)
Temperature  
Mean Temperature 40 °F -  
Max Temperature 54 °F 44 °F 64 °F (1990)
Min Temperature 27 °F 24 °F -7 °F (1997)
Degree Days  
Heating Degree Days 24    
Moisture  
Dew Point 12 °F    
Average Humidity 31    
Maximum Humidity 49    
Minimum Humidity 18    
Precipitation  
Precipitation 0.00 in - - ()
Sea Level Pressure  
Sea Level Pressure 29.93 in    
Wind  
Wind Speed 10 mph (WNW)    
Max Wind Speed 31 mph    
Max Gust Speed 41 mph    
Visibility 10 miles    
Events      
Averages and records for this station are not official NWS values.
T = Trace of Precipitation, MM = Missing Value Source: NWS Daily Summary

Daily Weather History Graph

Daily Weather History Graph

Search for Another Location

Airport or City:

Trip Planner

Search our weather history database for the weather conditions in past years. The results will help you decide how hot, cold, wet, or windy it might be!

Date:

Astronomy

Jan. 13, 2014 Rise Set
Actual Time 7:21 AM MST 4:57 PM MST
Civil Twilight 6:51 AM MST 5:27 PM MST
Nautical Twilight 6:18 AM MST 6:00 PM MST
Astronomical Twilight 5:45 AM MST 6:33 PM MST
Moon 3:14 PM MST (1/13) 5:12 AM MST (1/13)
Length of Visible Light 10h 35m
Length of Day
9h 35m
Waxing Gibbous, 95% of the Moon is Illuminated
Jan 13
Waxing Gibbous
Jan 15
Full
Jan 23
Last Quarter
Jan 30
New
Feb 6
First Quarter

Hourly Weather History & Observations

Time (MST) Temp. Windchill Dew Point Humidity Pressure Visibility Wind Dir Wind Speed Gust Speed Precip Events Conditions
12:12 AM 27.9 °F 21.5 °F 10.4 °F 48% 29.94 in 10.0 mi NE 5.8 mph - N/A   Clear
12:32 AM 28.2 °F 20.2 °F 11.1 °F 49% 29.94 in 10.0 mi East 8.1 mph - N/A   Clear
12:52 AM 27.9 °F 16.8 °F 10.9 °F 49% 29.93 in 10.0 mi East 13.8 mph - N/A   Clear
1:12 AM 30.6 °F 22.4 °F 9.3 °F 41% 29.93 in 10.0 mi East 9.2 mph - N/A   Clear
1:32 AM 29.7 °F 22.8 °F 9.1 °F 42% 29.95 in 10.0 mi East 6.9 mph - N/A   Clear
1:52 AM 29.5 °F 20.4 °F 8.1 °F 41% 29.95 in 10.0 mi East 10.4 mph - N/A   Clear
2:12 AM 29.3 °F 24.3 °F 9.3 °F 43% 29.95 in 10.0 mi SSE 4.6 mph - N/A   Clear
2:32 AM 27.5 °F 19.3 °F 10.6 °F 49% 29.95 in 10.0 mi NE 8.1 mph - N/A   Clear
2:52 AM 32.4 °F 27.9 °F 10.0 °F 39% 29.93 in 10.0 mi NE 4.6 mph - N/A   Clear
3:12 AM 29.3 °F 20.8 °F 11.1 °F 47% 29.93 in 10.0 mi East 9.2 mph - N/A   Clear
3:32 AM 28.9 °F 21.9 °F 10.4 °F 46% 29.91 in 10.0 mi ESE 6.9 mph - N/A   Clear
3:52 AM 29.8 °F 21.5 °F 10.0 °F 44% 29.92 in 10.0 mi ESE 9.2 mph - N/A   Clear
4:12 AM 31.3 °F 24.7 °F 8.1 °F 38% 29.91 in 10.0 mi ESE 6.9 mph - N/A   Clear
4:32 AM 30.2 °F 23.4 °F 10.6 °F 44% 29.91 in 10.0 mi ESE 6.9 mph - N/A   Clear
4:52 AM 31.5 °F 24.9 °F 9.5 °F 40% 29.91 in 10.0 mi NE 6.9 mph - N/A   Clear
5:12 AM 29.7 °F 24.7 °F 10.4 °F 45% 29.91 in 10.0 mi ESE 4.6 mph - N/A   Clear
5:32 AM 33.6 °F 30.6 °F 9.1 °F 36% 29.91 in 10.0 mi SSE 3.5 mph - N/A   Clear
5:52 AM 30.4 °F 23.6 °F 12.4 °F 47% 29.91 in 10.0 mi ESE 6.9 mph - N/A   Clear
6:12 AM 32.2 °F 27.7 °F 10.4 °F 40% 29.91 in 10.0 mi SSE 4.6 mph - N/A   Clear
6:32 AM 34.7 °F 31.8 °F 10.4 °F 37% 29.89 in 10.0 mi SSE 3.5 mph - N/A   Clear
6:52 AM 32.9 °F 29.8 °F 12.2 °F 42% 29.88 in 10.0 mi NNE 3.5 mph - N/A   Clear
7:12 AM 35.4 °F 29.7 °F 11.7 °F 38% 29.89 in 10.0 mi WNW 6.9 mph - N/A   Clear
7:32 AM 30.7 °F 27.3 °F 13.5 °F 49% 29.91 in 10.0 mi WNW 3.5 mph - N/A   Clear
7:52 AM 33.8 °F 30.8 °F 14.0 °F 44% 29.92 in 10.0 mi West 3.5 mph - N/A   Clear
8:12 AM 38.8 °F 35.4 °F 12.2 °F 34% 29.93 in 10.0 mi WSW 4.6 mph - N/A   Clear
8:32 AM 43.5 °F 41.9 °F 9.9 °F 25% 29.93 in 10.0 mi South 3.5 mph - N/A   Clear
8:52 AM 45.0 °F - 10.4 °F 25% 29.92 in 10.0 mi Calm Calm - N/A   Clear
9:12 AM 47.1 °F - 9.5 °F 22% 29.91 in 10.0 mi SW 3.5 mph - N/A   Clear
9:32 AM 47.5 °F - 13.1 °F 25% 29.92 in 10.0 mi ESE 5.8 mph - N/A   Clear
9:52 AM 49.8 °F - 8.8 °F 19% 29.91 in 10.0 mi South 3.5 mph - N/A   Clear
10:12 AM 49.5 °F - 9.5 °F 20% 29.92 in 10.0 mi ENE 6.9 mph - N/A   Clear
10:32 AM 49.1 °F - 12.4 °F 23% 29.93 in 10.0 mi ESE 9.2 mph 21.9 mph N/A   Clear
10:52 AM 50.2 °F - 10.0 °F 20% 29.92 in 10.0 mi East 5.8 mph 18.4 mph N/A   Clear
11:12 AM 52.2 °F - 10.8 °F 19% 29.92 in 10.0 mi NW 8.1 mph - N/A   Clear
11:32 AM 51.6 °F - 10.8 °F 19% 29.91 in 10.0 mi North 4.6 mph - N/A   Clear
11:52 AM 52.3 °F - 9.9 °F 18% 29.91 in 10.0 mi West 5.8 mph 18.4 mph N/A   Clear
12:12 PM 53.1 °F - 10.6 °F 18% 29.89 in 10.0 mi WNW 13.8 mph 18.4 mph N/A   Clear
12:32 PM 52.3 °F - 11.7 °F 20% 29.89 in 10.0 mi WNW 16.1 mph 24.2 mph N/A   Clear
12:52 PM 50.0 °F - 11.8 °F 22% 29.89 in 10.0 mi WNW 15.0 mph 19.6 mph N/A   Clear
1:12 PM 52.0 °F - 12.6 °F 21% 29.88 in 10.0 mi WNW 9.2 mph 17.3 mph N/A   Clear
1:32 PM 51.8 °F - 12.7 °F 21% 29.88 in 10.0 mi WNW 12.7 mph 21.9 mph N/A   Clear
1:52 PM 51.1 °F - 14.5 °F 23% 29.88 in 10.0 mi NNW 10.4 mph 19.6 mph N/A   Clear
2:12 PM 52.0 °F - 12.7 °F 21% 29.87 in 10.0 mi NNW 8.1 mph - N/A   Clear
2:32 PM 52.7 °F - 12.6 °F 20% 29.88 in 10.0 mi NNW 15.0 mph 20.7 mph N/A   Clear
2:52 PM 54.3 °F - 12.6 °F 19% 29.90 in 10.0 mi NW 13.8 mph 20.7 mph N/A   Clear
3:12 PM 51.4 °F - 14.0 °F 23% 29.92 in 10.0 mi NW 16.1 mph 25.3 mph N/A   Clear
3:32 PM 51.1 °F - 13.6 °F 23% 29.92 in 10.0 mi West 9.2 mph 16.1 mph N/A   Clear
3:52 PM 49.3 °F - 14.0 °F 24% 29.90 in 10.0 mi West 18.4 mph 28.8 mph N/A   Clear
4:12 PM 47.5 °F - 13.5 °F 26% 29.89 in 10.0 mi West 29.9 mph 38.0 mph N/A   Clear
4:32 PM 47.5 °F - 13.1 °F 25% 29.90 in 10.0 mi West 29.9 mph 41.4 mph N/A   Clear
4:52 PM 47.3 °F - 12.9 °F 25% 29.93 in 10.0 mi West 28.8 mph 40.3 mph N/A   Clear
5:12 PM 46.6 °F - 13.5 °F 26% 29.93 in 10.0 mi West 18.4 mph 31.1 mph N/A   Clear
5:32 PM 46.4 °F 38.3 °F 14.5 °F 28% 29.92 in 10.0 mi West 23.0 mph 38.0 mph N/A   Clear
5:52 PM 46.4 °F 37.9 °F 14.0 °F 27% 29.92 in 10.0 mi West 25.3 mph 41.4 mph N/A   Clear
6:12 PM 45.9 °F 38.0 °F 14.2 °F 28% 29.92 in 10.0 mi West 20.7 mph 34.5 mph N/A   Clear
6:32 PM 46.2 °F 38.3 °F 13.8 °F 27% 29.93 in 10.0 mi NW 21.9 mph 34.5 mph N/A   Clear
6:52 PM 45.7 °F 37.8 °F 13.8 °F 28% 29.94 in 10.0 mi WNW 20.7 mph 31.1 mph N/A   Clear
7:12 PM 46.6 °F - 13.3 °F 26% 29.93 in 10.0 mi WNW 23.0 mph 39.1 mph N/A   Clear
7:32 PM 46.0 °F 36.5 °F 13.8 °F 27% 29.92 in 10.0 mi WNW 31.1 mph 41.4 mph N/A   Clear
7:52 PM 46.0 °F 37.8 °F 13.3 °F 27% 29.95 in 10.0 mi WNW 23.0 mph 27.6 mph N/A   Clear
8:12 PM 46.8 °F - 12.4 °F 25% 29.95 in 10.0 mi West 19.6 mph 31.1 mph N/A   Clear
8:32 PM 45.9 °F 37.6 °F 13.1 °F 27% 29.96 in 10.0 mi West 23.0 mph 27.6 mph N/A   Clear
8:52 PM 46.6 °F - 12.9 °F 26% 29.95 in 10.0 mi WNW 20.7 mph 39.1 mph N/A   Clear
9:12 PM 46.2 °F 37.9 °F 13.8 °F 27% 29.96 in 10.0 mi WNW 24.2 mph 36.8 mph N/A   Clear
9:32 PM 45.9 °F 39.1 °F 13.8 °F 28% 29.96 in 10.0 mi West 16.1 mph 26.5 mph N/A   Clear
9:52 PM 43.9 °F 38.8 °F 13.6 °F 29% 29.98 in 10.0 mi WNW 9.2 mph - N/A   Clear
10:12 PM 45.3 °F 37.6 °F 13.8 °F 28% 29.99 in 10.0 mi WNW 19.6 mph 31.1 mph N/A   Clear
10:32 PM 44.1 °F 35.7 °F 14.2 °F 30% 30.00 in 10.0 mi West 20.7 mph 26.5 mph N/A   Clear
10:52 PM 43.0 °F 36.8 °F 14.9 °F 32% 30.00 in 10.0 mi West 11.5 mph 17.3 mph N/A   Clear
11:12 PM 44.2 °F 38.0 °F 15.4 °F 31% 30.02 in 10.0 mi West 12.7 mph 24.2 mph N/A   Clear
11:32 PM 43.7 °F 37.3 °F 15.3 °F 32% 30.02 in 10.0 mi West 12.7 mph 18.4 mph N/A   Clear
11:52 PM 42.3 °F 37.3 °F 15.6 °F 34% 30.03 in 10.0 mi West 8.1 mph - N/A   Clear